Location: *
(49.3500°N, 12.6000°E)
Time: 01:52:23
(UTC+00:00)

Cosmos 292 Rocket - Pass Details

Date: 18 October 2019
Orbit: 674 x 694 km, 74.0° (Epoch: 11 November)

Event Time Altitude Azimuth Distance (km) Brightness Sun altitude
Rises 17:12:01 0° 188° (S) 3,012 7.2 -10.1°
Reaches altitude 10° 17:14:20 10° 183° (S) 2,102 6.4 -10.5°
Maximum altitude 17:18:56 53° 107° (ESE) 828 3.8 -11.3°
Drops below altitude 10° 17:23:34 10° 32° (NNE) 2,120 6.0 -12.0°
Sets 17:25:54 0° 27° (NNE) 3,040 6.8 -12.4°
